This is the latest recevied weather packets stored in our database for station/object SQ9NFI-4. If no packets are shown the sender has not sent any weather packets the latest 10 day(s).
| Time | Temp. | Humidity | Pressure | Rain* | Wind** | Luminosity | Snow |
|---|---|---|---|---|---|---|---|
| 1777831516 | 17.78° C | 56% | 1015.9 hPa | 0 mm | - | 3 W/m² | - |
| 1777831216 | 18.33° C | 53% | 1015.9 hPa | 0 mm | - | 5 W/m² | - |
| 1777830916 | 18.89° C | 44% | 1015.9 hPa | 0 mm | - | 7 W/m² | - |
| 1777830616 | 19.44° C | 42% | 1015.2 hPa | 0 mm | - | 9 W/m² | - |
| 1777830316 | 20.56° C | 40% | 1015.2 hPa | 0 mm | - | 12 W/m² | - |
| 1777830016 | 21.67° C | 36% | 1015.2 hPa | 0 mm | - | 15 W/m² | - |
| 1777829716 | 22.78° C | 35% | 1015.9 hPa | 0 mm | - | 17 W/m² | - |
| 1777829416 | 23.33° C | 31% | 1015.9 hPa | 0 mm | - | 20 W/m² | - |
| 1777829116 | 23.89° C | 29% | 1015.2 hPa | 0 mm | - | 23 W/m² | - |
| 1777828816 | 24.44° C | 29% | 1015.2 hPa | 0 mm | - | 26 W/m² | - |
| 1777828516 | 24.44° C | 26% | 1015.2 hPa | 0 mm | - | 29 W/m² | - |
| 1777828216 | 24.44° C | 26% | 1015.9 hPa | 0 mm | - | 33 W/m² | - |
| 1777827916 | 25° C | 26% | 1015.9 hPa | 0 mm | - | 38 W/m² | - |
| 1777827616 | 25.56° C | 27% | 1015.2 hPa | 0 mm | - | 41 W/m² | - |
| 1777827316 | 25.56° C | 26% | 1015.2 hPa | 0 mm | - | 46 W/m² | - |
| 1777827016 | 25° C | 24% | 1015.9 hPa | 0 mm | - | 50 W/m² | - |
| 1777826716 | 25.56° C | 26% | 1015.9 hPa | 0 mm | - | 57 W/m² | - |
| 1777826416 | 25.56° C | 24% | 1015.9 hPa | 0 mm | - | 63 W/m² | - |
| 1777826116 | 26.11° C | 25% | 1015.9 hPa | 0 mm | - | 68 W/m² | - |
| 1777825816 | 25.56° C | 24% | 1015.9 hPa | 0 mm | - | 77 W/m² | - |
| 1777825516 | 25.56° C | 25% | 1015.9 hPa | 0 mm | - | 85 W/m² | - |
| 1777825216 | 25.56° C | 25% | 1015.9 hPa | 0 mm | - | 95 W/m² | - |
| 1777824916 | 25.56° C | 24% | 1015.9 hPa | 0 mm | - | 100 W/m² | - |
| 1777824616 | 26.11° C | 23% | 1015.9 hPa | 0 mm | - | 111 W/m² | - |
| 1777824316 | 26.11° C | 23% | 1015.9 hPa | 0 mm | - | 122 W/m² | - |
* Rain latest hour (hover to see other rain measurements)
** Current wind speed in m/s (hover to see current wind gust speed)